Blue Canyon, CA

4:46 AM PDT on April 27, 2017 (GMT -0700)
Blue Canyon-Nyack

Weather History for KBLU - December, 2011

Change the Weather History Date:

Sunday, December 4, 2011

  Actual Average Record
Temperature  
Mean Temperature 42 °F -  
Max Temperature 50 °F 46 °F 69 °F (1963)
Min Temperature 34 °F 34 °F 12 °F (1972)
Degree Days  
Heating Degree Days 22    
Moisture  
Dew Point 16 °F    
Average Humidity 35    
Maximum Humidity 50    
Minimum Humidity 29    
Precipitation  
Precipitation 0.00 in - - ()
Sea Level Pressure  
Sea Level Pressure 30.15 in    
Wind  
Wind Speed 7 mph (NNE)    
Max Wind Speed 14 mph    
Max Gust Speed 29 mph    
Visibility 10 miles    
Events      
Averages and records for this station are not official NWS values.
T = Trace of Precipitation, MM = Missing Value Source: NWS Daily Summary

Daily Weather History Graph

Daily Weather History Graph

Search for Another Location

Airport or City:

Trip Planner

Search our weather history database for the weather conditions in past years. The results will help you decide how hot, cold, wet, or windy it might be!

Date:

Astronomy

Dec. 04, 2011 Rise Set
Actual Time 7:06 AM PST 4:39 PM PST
Civil Twilight 6:36 AM PST 5:09 PM PST
Nautical Twilight 6:03 AM PST 5:42 PM PST
Astronomical Twilight 5:30 AM PST 6:15 PM PST
Moon 1:11 PM PST (12/4) 1:37 AM PST (12/4)
Length of Visible Light 10h 33m
Length of Day
9h 33m
Waxing Gibbous, 72% of the Moon is Illuminated
Dec 4
Waxing Gibbous
Dec 10
Full
Dec 17
Last Quarter
Dec 24
New
Dec 31
First Quarter

Hourly Weather History & Observations

Time (PST) Temp. Windchill Dew Point Humidity Pressure Visibility Wind Dir Wind Speed Gust Speed Precip Events Conditions
12:52 AM 36.0 °F 28.5 °F 9.0 °F 33% 30.17 in 10.0 mi ENE 10.4 mph 28.8 mph N/A   Clear
1:52 AM 37.9 °F 30.5 °F 12.0 °F 35% 30.16 in 10.0 mi ENE 11.5 mph 26.5 mph N/A   Clear
2:52 AM 41.0 °F 37.1 °F 14.0 °F 33% 30.18 in 10.0 mi Variable 5.8 mph - N/A   Clear
3:52 AM 39.0 °F 35.7 °F 12.0 °F 33% 30.19 in 10.0 mi North 4.6 mph - N/A   Clear
4:52 AM 41.0 °F 38.0 °F 15.1 °F 35% 30.20 in 10.0 mi NE 4.6 mph - N/A   Clear
5:52 AM 39.9 °F 37.8 °F 14.0 °F 35% 30.21 in 10.0 mi Variable 3.5 mph - N/A   Clear
6:52 AM 41.0 °F 38.0 °F 14.0 °F 33% 30.22 in 10.0 mi North 4.6 mph - N/A   Clear
7:52 AM 42.1 °F 40.2 °F 14.0 °F 32% 30.22 in 10.0 mi NNE 3.5 mph - N/A   Clear
8:52 AM 43.0 °F 41.3 °F 16.0 °F 34% 30.22 in 10.0 mi NE 3.5 mph - N/A   Clear
9:52 AM 46.9 °F - 19.0 °F 33% 30.19 in 10.0 mi Calm Calm - N/A   Clear
10:52 AM 48.9 °F - 18.0 °F 29% 30.17 in 10.0 mi NNW 4.6 mph - N/A   Clear
11:52 AM 48.9 °F - 19.9 °F 32% 30.15 in 10.0 mi NNW 4.6 mph - N/A   Clear
12:52 PM 50.0 °F - 25.0 °F 38% 30.12 in 10.0 mi Variable 4.6 mph - N/A   Clear
1:52 PM 50.0 °F - 21.0 °F 32% 30.09 in 10.0 mi NNW 5.8 mph - N/A   Clear
2:52 PM 48.0 °F - 27.0 °F 44% 30.08 in 10.0 mi West 3.5 mph - N/A   Clear
3:52 PM 46.0 °F 44.8 °F 28.0 °F 50% 30.09 in 10.0 mi NW 3.5 mph - N/A   Clear
4:52 PM 43.0 °F 38.2 °F 18.0 °F 37% 30.11 in 10.0 mi NE 8.1 mph - N/A   Clear
5:52 PM 41.0 °F 35.8 °F 16.0 °F 36% 30.14 in 10.0 mi NE 8.1 mph - N/A   Clear
6:52 PM 39.9 °F 37.8 °F 12.9 °F 33% 30.13 in 10.0 mi Variable 3.5 mph - N/A   Clear
7:52 PM 39.9 °F 33.4 °F 10.9 °F 31% 30.12 in 10.0 mi NNE 10.4 mph 19.6 mph N/A   Clear
8:52 PM 39.0 °F 31.0 °F 9.0 °F 29% 30.11 in 10.0 mi ENE 13.8 mph 27.6 mph N/A   Clear
9:52 PM 36.0 °F 29.6 °F 14.0 °F 41% 30.10 in 10.0 mi ENE 8.1 mph 19.6 mph N/A   Clear
10:52 PM 35.1 °F 26.9 °F 14.0 °F 42% 30.07 in 10.0 mi ENE 11.5 mph 20.7 mph N/A   Clear
11:52 PM 34.0 °F 26.6 °F 12.9 °F 42% 30.08 in 10.0 mi ENE 9.2 mph 20.7 mph N/A   Clear